Regional Weather Roundup
Issued by NWS

Home | Current Version | Previous Version | Text Only | Print | Product List | Glossary Off
Versions: 1 2 3 4 5 6 7 8 9 10 11 12 13 14 15 16 17 18 19 20 21 22 23 24 25 26 27 28 29 30 31 32 33 34 35 36 37 38 39 40 41 42 43 44 45 46 47 48 49 50

170
ASUS43 KOAX 210802
RWRNE

WEATHER ROUNDUP FOR NEBRASKA
NATIONAL WEATHER SERVICE OMAHA NE
200 AM CST TUE FEB 21 2017

NOTES: SATELLITE DATA IS BEING USED TO AUGMENT CLOUD COVER ABOVE
       12000 FEET.
       "FAIR" INDICATES FEW OR NO CLOUDS BELOW 12,000 FEET WITH NO
       SIGNIFICANT WEATHER AND/OR OBSTRUCTIONS TO VISIBILITY.

  * THESE STATIONS DO NOT REPORT WEATHER SUCH AS RAIN...SNOW OR FOG.

NEZ001>004-019>022-054>056-210900-
NEBRASKA PANHANDLE

CITY           SKY/WX    TMP DP  RH WIND       PRES   REMARKS
SCOTTSBLUFF    CLOUDY    39  21  48 N3        29.93S
ALLIANCE       PTCLDY    38  24  57 SE3       29.92F
CHADRON        CLEAR     49  26  41 SW15      29.86S
KIMBALL        CLEAR     41  21  45 SW13      29.97S
SIDNEY         CLOUDY    29  17  61 SW8       29.96F WCI  21
$$

NEZ057>060-069>072-079>082-210900-
SOUTHWEST NEBRASKA

CITY           SKY/WX    TMP DP  RH WIND       PRES   REMARKS
NORTH PLATTE   CLOUDY    29  23  78 N5        29.97R WCI  24
IMPERIAL       CLOUDY    36  16  44 SW8       29.98F WCI  30
LEXINGTON      CLOUDY    30  26  83 CALM      29.97F
MCCOOK         CLOUDY    31  23  72 W6        29.98S WCI  25
OGALLALA       CLEAR     40  19  41 W5        29.96F
$$

NEZ005>010-023>029-035>040-094-210900-
NORTH CENTRAL NEBRASKA

CITY           SKY/WX    TMP DP  RH WIND       PRES   REMARKS
VALENTINE      CLEAR     38  26  62 SW12      29.87S WCI  30
AINSWORTH      CLEAR     41  27  57 SW12      29.89F
BROKEN BOW     CLEAR     31  27  85 CALM      29.94F
O`NEILL        CLEAR     34  30  83 S8        29.91F WCI  28
ORD            CLEAR     30  26  85 CALM      29.94S
THEDFORD       CLEAR     41  22  47 SW7       29.93S
$$

NEZ041-046>049-061>064-073>077-083>087-210900-
SOUTH CENTRAL NEBRASKA

CITY           SKY/WX    TMP DP  RH WIND       PRES   REMARKS
GRAND ISLAND   CLEAR     40  35  83 SW5       29.96R
AURORA         CLEAR     35  32  90 SW8       29.96R WCI  29
HASTINGS       CLEAR     40  32  73 SW6       29.98R
HEBRON         PTCLDY    32  31  96 CALM      29.97F
HOLDREGE       CLOUDY    40  28  61 SW6       29.97F
KEARNEY *      CLEAR     39  28  65 SW8       29.98S WCI  34
YORK           CLEAR     36  34  93 CALM      29.96S
$$

NEZ011>018-030>034-042>045-210900-
NORTHEAST NEBRASKA

CITY           SKY/WX    TMP DP  RH WIND       PRES   REMARKS
NORFOLK        CLEAR     33  30  88 CALM      29.94R
ALBION         CLEAR     32  29  90 CALM      29.95S
BLAIR          CLEAR     43  39  86 CALM      29.95S
FREMONT        CLEAR     34  34 100 CALM      29.96F
TEKAMAH        CLEAR     34  32  92 CALM      29.95F
WAYNE          CLEAR     29  28  97 S3        29.94R
$$

NEZ050>053-065>068-078-088>093-210900-
SOUTHEAST NEBRASKA

CITY           SKY/WX    TMP DP  RH WIND       PRES   REMARKS
LINCOLN        CLEAR     31  29  92 N3        29.98S
OMAHA EPPLEY   CLEAR     36  32  85 NW6       29.95F WCI  31
BEATRICE       FOG       32  32  99 CALM      29.98R VSB 3/4
FALLS CITY     CLEAR     42  40  92 NW5       29.97R
NEBRASKA CITY  CLEAR     46  38  74 N6        29.96S
PLATTSMOUTH    CLEAR     43  37  80 CALM      29.96S
$$

NEZ044-045-051>053-067-210900-
OMAHA AREA

CITY           SKY/WX    TMP DP  RH WIND       PRES   REMARKS
OMAHA EPPLEY   CLEAR     36  32  85 NW6       29.95F WCI  31
BLAIR          CLEAR     43  39  86 CALM      29.95S
FREMONT        CLEAR     34  34 100 CALM      29.96F
MILLARD        CLEAR     38  37  96 CALM      29.96S FOG
PLATTSMOUTH    CLEAR     43  37  80 CALM      29.96S
WAHOO          FAIR      31  30  95 CALM      29.96F
$$




USA.gov is the U.S. government's official web portal to all federal, state and local government web resources and services.